Regional Weather Roundup
Issued by NWS

Home | Current Version | Previous Version | Text Only | Print | Product List | Glossary Off
Versions: 1 2 3 4 5 6 7 8 9 10 11 12 13 14 15 16 17 18 19 20 21 22 23 24 25 26 27 28 29 30 31 32 33 34 35 36 37 38 39 40 41 42 43 44 45 46 47 48 49 50

871
ASUS43 KDTX 231410
RWRMI
MICHIGAN HOURLY REGIONAL WEATHER ROUNDUP
NATIONAL WEATHER SERVICE DETROIT/PONTIAC MI
900 AM EST THU NOV 23 2017

NOTE: "FAIR" INDICATES FEW OR NO CLOUDS BELOW 12,000 FEET WITH NO
SIGNIFICANT WEATHER AND/OR OBSTRUCTION TO VISIBILITY.

MIZ047>049-052>055-059>063-066>070-074>076-081>083-231500-
SOUTHEAST LOWER MICHIGAN

CITY           SKY/WX    TMP DP  RH WIND       PRES   REMARKS
ADRIAN         CLOUDY    29  24  82 SW8       30.11F WCI  21
ALMA           CLOUDY    32  24  74 S6        30.04S WCI  26
ANN ARBOR      CLOUDY    29  25  85 S7        30.09F WCI  22
BAD AXE        CLOUDY    31  22  70 SW10      30.04S WCI  22
CARO           CLOUDY    32  23  70 S7        30.04S WCI  25
DETROIT CITY   CLOUDY    31  22  69 SW12      30.11F WCI  22
DETROIT        CLOUDY    31  24  75 S9        30.12S WCI  23
FLINT          CLOUDY    31  21  66 SW8       30.07S WCI  23
GROSSE ILE     CLOUDY    32  24  73 SW6       30.11S WCI  26
HILLSDALE      CLOUDY    30  23  74 S6        30.07S WCI  24
HOWELL         CLOUDY    30  23  74 S6        30.07S WCI  24

CITY           SKY/WX    TMP DP  RH WIND       PRES   REMARKS
JACKSON        CLOUDY    31  20  63 SW7       30.08R WCI  24
LAMBERTVILLE   CLOUDY    32  25  76 S7        30.13S WCI  26
LANSING        CLOUDY    31  20  63 S9        30.06F WCI  23
LAPEER         CLOUDY    31  22  68 SW9       30.06F WCI  23
MASON          CLOUDY    32  21  63 S3        30.07S
MONROE         CLOUDY    32  24  73 SW6       30.12S WCI  26
MT. CLEMENS    CLOUDY    32  24  74 SW9       30.08F WCI  24
PONTIAC        CLOUDY    29  23  78 SW6       30.07S WCI  23
PORT HOPE        N/A     32  22  66 VRB6      30.01F WCI  26
PORT HURON     CLOUDY    32  21  64 SW6       30.09F WCI  26
TRI CITIES     CLOUDY    32  24  72 S9        30.04F WCI  24
MIDLAND        CLOUDY    33  24  70 S7        30.02F WCI  26
TROY           CLOUDY    32  24  71 S7        30.11F WCI  26
SAGINAW HB     CLOUDY    32  25  74 S10       30.04F WCI  24
$$
MIZ043>046-050>051-056>058-064>065-071>073-077>080-231500-
SOUTHWEST LOWER MICHIGAN

CITY           SKY/WX    TMP DP  RH WIND       PRES   REMARKS
BATTLE CREEK   CLOUDY    31  21  66 SW10      30.07S WCI  22
BENTON HARBOR  CLOUDY    33  20  58 S9        30.06F WCI  25
BIG RAPIDS     CLOUDY    32  24  74 CALM      30.00R
COLDWATER      CLOUDY    31  22  68 SW7       30.08S WCI  25
FREMONT        CLOUDY    36  26  67 SW9       30.00S WCI  29
HOLLAND        CLOUDY    33  24  69 S12       30.04F WCI  24
GRAND RAPIDS   CLOUDY    33  24  69 S12       30.03F WCI  24
IONIA          CLOUDY    32  22  67 S7        30.03F WCI  26
KALAMAZOO      CLOUDY    32  18  56 S9        30.07F WCI  24
LUDINGTON      CLOUDY    37  25  61 SW12G17   29.99S WCI  30
MARSHALL       CLOUDY    31  20  65 SW7       30.07S WCI  24
MOUNT PLEASANT CLOUDY    33  24  69 S6        30.01S WCI  27
MUSKEGON       CLOUDY    39  23  52 SW15      30.02S WCI  31
SOUTH HAVEN    CLOUDY    33  22  62 S8        30.05F WCI  27
$$
MIZ016>042-231500-
NORTHERN LOWER MICHIGAN

CITY           SKY/WX    TMP DP  RH WIND       PRES   REMARKS
ALPENA         CLOUDY    31  25  78 SW8       29.96F WCI  23
BEAVER ISLAND  LGT SNOW  33  30  87 W14       29.91F WCI  24
BELLAIRE       CLOUDY    32  32 100 SW5       29.97S WCI  27
CADILLAC       CLOUDY    30  25  82 SW5       29.95S WCI  25
CHARLEVOIX     LGT RAIN  33  32  93 SW8       29.96S WCI  27
FRANKFORT      CLOUDY    38  25  60 SW7       29.96F WCI  32
GAYLORD        CLOUDY    28  25  88 SW12      29.92S WCI  18
GRAYLING       CLOUDY    30  26  85 SW6       29.96S FOG     WCI  24
HARBOR SPRINGS RAIN      33  32  97 SW12G20   29.92S WCI  24
HOUGHTON LAKE  CLOUDY    30  24  78 SW7       29.97S WCI  23
MANISTEE       CLOUDY    34  24  67 S3        29.98S
OSCODA         CLOUDY    31  23  72 SW8       29.99F WCI  24
PELLSTON       CLOUDY    34  31  88 VRB7      29.92S WCI  28
ROGERS CITY    CLOUDY    31  25  78 S8        29.94F WCI  23
TRAVERSE CITY  CLOUDY    33  27  78 VRB3      29.96S
$$
MIZ007>008-015-231500-
EASTERN UPPER MICHIGAN

CITY           SKY/WX    TMP DP  RH WIND       PRES   REMARKS
KINROSS        FLURRIES  27  22  81 SW5       29.88F WCI  22
MACKINAC ISLAN CLOUDY    34  29  84 W12G17    29.90S WCI  25
NEWBERRY       CLOUDY    26  21  83 SW7       29.87F WCI  18
S. S. MARIE    CLOUDY    28  21  75 SW6       29.87F WCI  22
MUNISING         N/A     28  21  75 S6        29.89S WCI  22
$$
MIZ004>006-011>014-085-231500-
CENTRAL UPPER MICHIGAN

CITY           SKY/WX    TMP DP  RH WIND       PRES   REMARKS
MANISTIQUE     CLOUDY    29  17  61 W3        29.90F
ESCANABA       CLOUDY    29  21  72 SW10      29.93S WCI  20
MENOMINEE      CLOUDY    30  22  72 SW5       29.95F WCI  25
SAWYER-GWINN   CLEAR     25  19  80 S7        29.87S WCI  17
$$
MIZ001>003-009>011-084-231500-
WESTERN UPPER MICHIGAN

CITY           SKY/WX    TMP DP  RH WIND       PRES   REMARKS
IRON MOUNTAIN  CLOUDY    26  18  71 S5        29.88S WCI  20
HOUGHTON       CLOUDY    29  22  75 W12       29.83R WCI  19
COPPER HARBOR    N/A     32  25  75 VRB7      29.82S WCI  26
IRONWOOD       CLOUDY    22  18  85 SW5       29.89R WCI  16
$$

ABBREVIATIONS USED IN REMARKS
   TC - TEMPERATURE IN CELSIUS
  WCI - WIND CHILL INDEX
   HX - HEAT INDEX
  VSB - VISIBILITY





USA.gov is the U.S. government's official web portal to all federal, state and local government web resources and services.